Other Public Products
Issued by NWS Grand Forks, ND

Home | Current Version | Previous Version | Text Only | Print | Product List | Glossary On
Versions: 1 2 3 4 5 6 7 8 9 10 11 12 13 14 15 16 17 18 19 20 21 22 23 24 25 26 27 28 29 30 31 32 33 34 35 36 37 38 39 40 41 42 43 44 45 46 47 48 49 50
000
FPUS83 KFGF 020531
OPUFGF
PRAIRIE TO PINES WEATHER ROUNDUP
NATIONAL WEATHER SERVICE EASTERN NORTH DAKOTA/GRAND FORKS ND
1200 AM CDT MON MAY 02 2016

 **SATELLITE DATA USED TO AUGMENT SKY COVER AT AUTOMATED STATIONS**
 *****  WEATHER ACROSS EASTERN NORTH DAKOTA  *****

CITY           SKY/WX    TMP DP  RH WIND       PRES   REMARKS
GRAND FORKS    MOCLDY    44  32  62 S3        30.11F
GRAND FORKS AF MOCLDY    43  32  65 SW5       30.11F
GRAND CITY NWS NOT AVBL
BUXTON           N/A     53  26  35 E5          N/A
DEVILS LAKE    CLOUDY    50  35  56 S7        30.10F
FARGO          CLEAR     45  26  47 E5        30.12F
WAHPETON ARPT  CLEAR     43  28  56 NW3       30.13S
$$

 *****  WEATHER ACROSS CENTRAL AND WESTERN NORTH DAKOTA  *****

CITY           SKY/WX    TMP DP  RH WIND       PRES   REMARKS
JAMESTOWN      PTCLDY    49  32  52 CALM      30.13S
BISMARCK       CLEAR     45  33  63 CALM      30.16R
MINOT          CLOUDY    58  27  30 S8        30.08F
MINOT AFB      CLOUDY    52  30  43 S9        30.07F HAZE
GARRISON         N/A     42  29  59 S5        30.12F
WILLISTON      CLEAR     47  34  60 SW7       30.11F
DICKINSON      CLEAR     43  28  55 W3        30.15S
HETTINGER      CLEAR     36  30  79 W5        30.18F
$$

 *****  OTHER OBSERVATIONS NORTHEAST NORTH DAKOTA  *****

CITY           SKY/WX    TMP DP  RH WIND       PRES   REMARKS
WALHALLA       FAIR      55  27  33 S9        30.08F
LANGDON        FAIR      48  28  46 S10       30.09S
CAVALIER       FAIR      50  37  62 SW6       30.08F
GRAFTON        FAIR      48  34  57 S9        30.11F
CANDO          FAIR      46  27  46 CALM      30.11S
FORT TOTTEN      N/A     50  25  38 SE2       29.95S
ROLLA          CLOUDY    46  30  53 SW7       30.09F
RUGBY          FAIR      48  30  49 S6        30.08F
 ***** THE ABOVE OBSERVATIONS ARE NON NWS ARE NOT QUALITY
        CONTROLLED AND MAY MIS-REPORT RAIN FOR SNOW...
$$

 *****  OTHER OBSERVATIONS SOUTHEAST NORTH DAKOTA *****

CITY           SKY/WX    TMP DP  RH WIND       PRES   REMARKS
COOPERSTOWN    NOT AVBL
VALLEY CITY    FAIR      45  27  49 CALM      30.15F
OAKES            N/A    N/A N/A N/A MISG        N/A
GWINNER        FAIR      43  32  65 W5        30.14S
SHEYENNE NWR     N/A     41  30  64 W3        29.95S
BUFFALO          N/A     51  21  31 CALM        N/A
WYNDMERE         N/A     43  28  56 SW2         N/A
 ***** THE ABOVE OBSERVATIONS ARE NON NWS ARE NOT QUALITY
       CONTROLLED AND MAY MIS-REPORT RAIN FOR SNOW...
$$

  *****  WEATHER ACROSS NORTHERN MINNESOTA  *****

CITY           SKY/WX    TMP DP  RH WIND       PRES   REMARKS
FLAG ISLAND    CLOUDY    45  32  61 SW5       30.10F
WARROAD        PTCLDY    39  36  87 CALM      30.12F
ROSEAU         PTCLDY    43  34  70 S3        30.12F
HALLOCK        CLOUDY    48  28  46 S7        30.09F
THF RVR FALLS  MOCLDY    45  25  45 CALM      30.13F
HALSTAD        NOT AVBL
FOSSTON        CLEAR     37  27  65 CALM      30.13F
BAUDETTE       CLOUDY    37  33  85 CALM      30.12F
WASKISH        CLEAR     39  37  93 CALM      30.12F
CROOKSTON      MOCLDY    46  30  53 SE7       30.12F
$$
  *****  WEATHER ACROSS CENTRAL AND WEST MINNESOTA  *****

CITY           SKY/WX    TMP DP  RH WIND       PRES   REMARKS
BEMIDJI        CLEAR     36  29  76 CALM      30.12F
PARK RAPIDS    CLEAR     43  31  62 CALM      30.12F
WADENA         CLEAR     41  32  70 CALM      30.12S
DETROIT LAKES  CLEAR     48  37  66 CALM      30.14S
MOORHEAD       CLEAR     48  28  46 CALM      30.13F
FERGUS FALLS   CLEAR     48  30  49 NE3       30.11S
ELBOW LAKE     FAIR      48  40  75 CALM      30.13S
MORRIS MN      CLEAR     46  32  57 CALM      30.13S
STAPLES        CLEAR     41  30  65 CALM      30.13S
WHEATON        CLEAR     48  36  61 SW5       30.15S
$$
  *****  WEATHER ELSEWHERE ACROSS MINNESOTA  *****

CITY           SKY/WX    TMP DP  RH WIND       PRES   REMARKS
DULUTH         CLEAR     39  31  72 E3        30.14S
INTRNTL FALLS  CLEAR     31  29  92 CALM      30.12F
ELY            CLEAR     36  30  80 CALM      30.13F
CLOQUET        CLEAR     36  30  80 CALM      30.14S
BRAINERD       CLEAR     41  34  76 CALM      30.13S
HIBBING        CLEAR     32  29  88 CALM      30.13F
ALEXANDRIA     CLEAR     46  31  55 CALM      30.14S
SAINT CLOUD    CLEAR     43  32  65 CALM      30.13S
MINNEAPOLIS    CLEAR     52  35  52 N10       30.11S
$$

  *****  WEATHER ACROSS SOUTH DAKOTA  *****

CITY           SKY/WX    TMP DP  RH WIND       PRES   REMARKS
SIOUX FALLS    CLEAR     40  36  86 CALM      30.17S
BROOKINGS      CLEAR     44  33  65 SE5       30.15S
WATERTOWN      CLEAR     42  31  64 CALM      30.15S
HURON          CLEAR     45  37  73 CALM      30.17S
SISSETON         N/A     42  32  67 CALM      30.13S
ABERDEEN       CLEAR     42  34  73 W6        30.16S
MITCHELL       CLEAR     46  39  76 W5        30.19R
PIERRE         CLEAR     47  34  60 S3        30.19S
MOBRIDGE       CLEAR     41  33  73 CALM      30.14F
RAPID CITY     CLEAR     39  30  70 W5        30.24S
$$

  *****  SOME WEATHER IN NEARBY STATES *****

CITY           SKY/WX    TMP DP  RH WIND       PRES   REMARKS
GLASGOW MT     PTCLDY    53  33  46 W6        30.16S
GREAT FALLS MT CLEAR     50  32  50 NE3       30.19R
CHEYENNE WY    CLEAR     29  22  75 W9        30.28S WCI  20
SCOTTSBLUFF NE CLEAR     37  31  78 NW10      30.27S
OMAHA NE       MOCLDY    48  46  93 CALM      30.15R
DES MOINES IA  MOCLDY    49  44  83 N7        30.11F
DAVENPORT IA   CLOUDY    47  45  93 N7        30.04S FOG
CHICAGO IL     CLOUDY    45  43  93 NE14      29.99F
EAU CLAIRE WI  CLEAR     49  34  56 NE8       30.09R
LA CROSSE WI   PTCLDY    43  40  89 CALM      30.09R
$$

  *****  SOME NATIONAL WEATHER *****

CITY           SKY/WX    TMP DP  RH WIND       PRES   REMARKS
LA GUARDIA NY  CLOUDY    46  43  87 NE7       30.07F FOG
RALEIGH NC     CLOUDY    68  64  87 SW9       29.99F
ATLANTA GA     CLOUDY    67  64  90 S3        30.03R
NEW ORLEANS LA CLOUDY    71  65  81 CALM      29.95R
OKLAHOMA CITY  CLOUDY    53  45  74 N14       30.17R
ALBUQUERQUE NM MOCLDY    41  33  73 E7        30.26R
SALT LAKE CITY PTCLDY    52  29  41 W6        30.10R
LOS ANGELES CA PTCLDY    58  52  80 W8        30.01R
BOISE ID       CLEAR     55  36  48 E5        30.08R
SEATTLE WA     CLEAR     70  43  37 NE12      29.96R
$$

*** WEATHER ACROSS MANITOBA...SASKATCHEWAN AND ONTARIO ***
                ***ONTARIO***

CITY           SKY/WX    TMP DP  RH WIND       PRES   REMARKS
GERALDTON      PTCLDY    28  27  93 CALM      30.15F
THUNDER BAY    CLEAR     32  30  93 W3        30.16S
SIOUX LOOKOUT  PTCLDY    34  30  86 SW2       30.10F
TORONTO        CLOUDY    45  41  87 NE9       30.01F
BIG TROUT LK   MOCLDY    43  30  61 VRB2      30.06S
PICKLE LAKE    NOT AVBL
DRYDEN         MOCLDY    50  28  43 S7        30.11F
KENORA         NOT AVBL
$$
                *** MANITOBA***

CITY           SKY/WX    TMP DP  RH WIND       PRES   REMARKS
BRANDON        CLOUDY    52  28  40 NW7       30.08R
DAUPHIN        MOCLDY    50  46  87 S6        30.04F
ISLAND LAKE    PTCLDY    45  32  61 NW14G26   30.06R
PILOT MOUND      N/A     46  27  46 S5          N/A
THE PAS        CLEAR     37  36  93 VRB3      30.05R
THOMPSON       CLEAR     37  36  93 S2        29.99F
WINNIPEG       MOCLDY    55  30  38 S8        30.08S
LYNN LAKE      CLEAR     41  36  81 SW6       29.99S
CHURCHILL      PTCLDY    41  34  75 NW7       29.87S
GILLAM         CLEAR     50  32  50 SW8       29.97
$$
                ***SASKATCHEWAN***

CITY           SKY/WX    TMP DP  RH WIND       PRES   REMARKS
ESTEVAN        NOT AVBL
KINDERSLEY     CLEAR     48  32  53 SW6       30.08S
LLOYDMINSTER   CLEAR     50  37  62 W9        30.05S
PRINCE ALBERT  PTCLDY    54  37  54 SE8       30.03R
REGINA         MOCLDY    48  34  57 W10       30.05F
YORKTON        MOCLDY    52  41  66 SE6G18    30.01S  C1F1C2F2C3F3C4F4C5F5C6F6C7F7C8F8C9F9CaFaCbFbCcFcCdFdCe!


USA.gov is the U.S. government's official web portal to all federal, state and local government web resources and services.